Chehalis, WA
on Wednesday, November 14, 2012

Wednesday
Previous Day Next Day
Daily Summary
 ActualAverage (KOLM)Record (KOLM)
Temperature
Mean Temperature °F / °C 44°F / 7°C  
Max Temperature 55°F / 13°C 51°F / 11°C 65°F / 18°C (1995)
Min Temperature 39°F / 4°C 37°F / 3°C 3°F / -16°C (1955)
Degree Days
Heating Degree Days 18 21  
Month to date heating degree days 278  
Since 1 July heating degree days 1072  
Cooling Degree Days 0 0  
Month to date cooling degree days 0  
Year to date cooling degree days 106  
Moisture
Dew Point 45°F / 7°C   
Average Humidity 93    
Maximum Humidity 100    
Minimum Humidity 63    
Precipitation
Precipitation 0.06 in / 1.52 cm 0.30 in / 7.62 cm 3.64 in / 9.25 cm (2001)
Month to date precipitation 3.77  
Year to date precipitation 37.68  
Wind
Wind Speed 2 mph / 3 km/h   
Max Wind Speed 7 mph / 11 km/h   
Max Gust Speed mph / km/h   
Visibility 7 miles / 11 kilometers   
Events Fog , Rain   

Key: T is trace of precipitation, MM is missing value
Source: NWS Daily Summary
Time(PST)TemperatureDew PointHumidity Pressure Visibility Wind DirectionWind SpeedGust SpeedPrecipitationEvents Conditions
12:15 AM 46.4°F / 8.0°C 46.4°F / 8.0°C 100% 30.22 in / 1023.2 hPa 10.0 miles / 16.1 kilometers Calm Calm - N/A   Unknown
12:35 AM 46.4°F / 8.0°C 44.6°F / 7.0°C 93% 30.22 in / 1023.2 hPa 10.0 miles / 16.1 kilometers SW 3.5 mph / 5.6 km/h - N/A   Unknown
12:55 AM 46.4°F / 8.0°C 46.4°F / 8.0°C 100% 30.23 in / 1023.6 hPa 7.0 miles / 11.3 kilometers Calm Calm - N/A   Unknown
1:15 AM 46.4°F / 8.0°C 46.4°F / 8.0°C 100% 30.23 in / 1023.6 hPa 10.0 miles / 16.1 kilometers Calm Calm - N/A   Unknown
1:35 AM 46.4°F / 8.0°C 46.4°F / 8.0°C 100% 30.23 in / 1023.6 hPa 10.0 miles / 16.1 kilometers Calm Calm - N/A   Unknown
1:55 AM 46.4°F / 8.0°C 44.6°F / 7.0°C 93% 30.23 in / 1023.6 hPa 10.0 miles / 16.1 kilometers Calm Calm - N/A   Unknown
2:15 AM 46.4°F / 8.0°C 44.6°F / 7.0°C 93% 30.23 in / 1023.6 hPa 10.0 miles / 16.1 kilometers Calm Calm - N/A   Unknown
2:35 AM 46.4°F / 8.0°C 44.6°F / 7.0°C 93% 30.23 in / 1023.6 hPa 10.0 miles / 16.1 kilometers SW 4.6 mph / 7.4 km/h - N/A   Unknown
2:55 AM 46.4°F / 8.0°C 46.4°F / 8.0°C 100% 30.23 in / 1023.6 hPa 10.0 miles / 16.1 kilometers SW 3.5 mph / 5.6 km/h - N/A   Unknown
3:15 AM 46.4°F / 8.0°C 46.4°F / 8.0°C 100% 30.24 in / 1023.9 hPa 10.0 miles / 16.1 kilometers SW 3.5 mph / 5.6 km/h - N/A   Unknown
3:35 AM 46.4°F / 8.0°C 46.4°F / 8.0°C 100% 30.23 in / 1023.6 hPa 10.0 miles / 16.1 kilometers SSW 3.5 mph / 5.6 km/h - N/A   Unknown
3:55 AM 46.4°F / 8.0°C 46.4°F / 8.0°C 100% 30.24 in / 1023.9 hPa 8.0 miles / 12.9 kilometers South 3.5 mph / 5.6 km/h - N/A   Unknown
4:15 AM 46.4°F / 8.0°C 46.4°F / 8.0°C 100% 30.24 in / 1023.9 hPa 6.0 miles / 9.7 kilometers Calm Calm - N/A   Mist
4:35 AM 46.4°F / 8.0°C 46.4°F / 8.0°C 100% 30.24 in / 1023.9 hPa 8.0 miles / 12.9 kilometers Calm Calm - N/A   Unknown
4:55 AM 46.4°F / 8.0°C 46.4°F / 8.0°C 100% 30.25 in / 1024.3 hPa 7.0 miles / 11.3 kilometers Calm Calm - N/A   Unknown
5:15 AM 46.4°F / 8.0°C 46.4°F / 8.0°C 100% 30.25 in / 1024.3 hPa 3.0 miles / 4.8 kilometers South 3.5 mph / 5.6 km/h - 0.04 in / 1.0 cm Rain Light Rain
5:35 AM 46.4°F / 8.0°C 46.4°F / 8.0°C 100% 30.25 in / 1024.3 hPa 5.0 miles / 8.0 kilometers WSW 4.6 mph / 7.4 km/h - 0.06 in / 1.5 cm Rain Light Rain
5:55 AM 46.4°F / 8.0°C 46.4°F / 8.0°C 100% 30.25 in / 1024.3 hPa 8.0 miles / 12.9 kilometers WSW 3.5 mph / 5.6 km/h - 0.06 in / 1.5 cm   Unknown
6:15 AM 46.4°F / 8.0°C 46.4°F / 8.0°C 100% 30.26 in / 1024.6 hPa 8.0 miles / 12.9 kilometers SW 3.5 mph / 5.6 km/h - N/A   Unknown
6:35 AM 46.4°F / 8.0°C 46.4°F / 8.0°C 100% 30.26 in / 1024.6 hPa 4.0 miles / 6.4 kilometers Calm Calm - N/A   Mist
6:55 AM 46.4°F / 8.0°C 46.4°F / 8.0°C 100% 30.27 in / 1024.9 hPa 4.0 miles / 6.4 kilometers Calm Calm - N/A   Mist
7:15 AM 46.4°F / 8.0°C 44.6°F / 7.0°C 93% 30.27 in / 1024.9 hPa 4.0 miles / 6.4 kilometers Calm Calm - N/A   Mist
7:55 AM 44.6°F / 7.0°C 44.6°F / 7.0°C 100% 30.29 in / 1025.6 hPa 1.2 miles / 2.0 kilometers Calm Calm - N/A   Mist
8:15 AM 44.6°F / 7.0°C 44.6°F / 7.0°C 100% 30.29 in / 1025.6 hPa 1.2 miles / 2.0 kilometers Calm Calm - N/A   Mist
8:35 AM 46.4°F / 8.0°C 44.6°F / 7.0°C 93% 30.29 in / 1025.6 hPa 0.8 miles / 1.2 kilometers SW 3.5 mph / 5.6 km/h - N/A   Mist
8:55 AM 46.4°F / 8.0°C 46.4°F / 8.0°C 100% 30.29 in / 1025.6 hPa 0.2 miles / 0.4 kilometers SSW 4.6 mph / 7.4 km/h - N/A Fog Fog
9:15 AM 48.2°F / 9.0°C 48.2°F / 9.0°C 100% 30.30 in / 1026.0 hPa 0.2 miles / 0.4 kilometers SSW 3.5 mph / 5.6 km/h - N/A Fog Fog
9:35 AM 48.2°F / 9.0°C 46.4°F / 8.0°C 93% 30.30 in / 1026.0 hPa 0.8 miles / 1.2 kilometers Calm Calm - N/A   Mist
10:15 AM 48.2°F / 9.0°C 48.2°F / 9.0°C 100% 30.32 in / 1026.6 hPa 5.0 miles / 8.0 kilometers South 3.5 mph / 5.6 km/h - N/A   Mist
10:35 AM 50.0°F / 10.0°C 46.4°F / 8.0°C 87% 30.32 in / 1026.6 hPa 7.0 miles / 11.3 kilometers Calm Calm - N/A   Unknown
10:55 AM 50.0°F / 10.0°C 48.2°F / 9.0°C 94% 30.32 in / 1026.6 hPa 10.0 miles / 16.1 kilometers Calm Calm - N/A   Unknown
11:15 AM 50.0°F / 10.0°C 46.4°F / 8.0°C 87% 30.32 in / 1026.6 hPa 10.0 miles / 16.1 kilometers Calm Calm - N/A   Unknown
11:35 AM 50.0°F / 10.0°C 46.4°F / 8.0°C 87% 30.32 in / 1026.6 hPa 10.0 miles / 16.1 kilometers Calm Calm - N/A   Unknown
11:55 AM 51.8°F / 11.0°C 46.4°F / 8.0°C 82% 30.32 in / 1026.6 hPa 10.0 miles / 16.1 kilometers Calm Calm - N/A   Unknown
12:15 PM - - N/A% 30.31 in / 1026.3 hPa - Calm Calm - N/A   Unknown
12:35 PM 53.6°F / 12.0°C 46.4°F / 8.0°C 77% 30.31 in / 1026.3 hPa 10.0 miles / 16.1 kilometers NNE 3.5 mph / 5.6 km/h - N/A   Unknown
12:55 PM - - N/A% - / - - North - - N/A   Unknown
1:15 PM 55.4°F / 13.0°C 46.4°F / 8.0°C 72% 30.31 in / 1026.3 hPa 10.0 miles / 16.1 kilometers North 5.8 mph / 9.3 km/h - N/A   Unknown
1:35 PM 53.6°F / 12.0°C 44.6°F / 7.0°C 72% 30.31 in / 1026.3 hPa 10.0 miles / 16.1 kilometers NNE 4.6 mph / 7.4 km/h - N/A   Overcast
2:15 PM 53.6°F / 12.0°C 44.6°F / 7.0°C 72% 30.30 in / 1026.0 hPa 10.0 miles / 16.1 kilometers North 3.5 mph / 5.6 km/h - N/A   Clear
2:35 PM 55.4°F / 13.0°C 44.6°F / 7.0°C 67% 30.30 in / 1026.0 hPa 10.0 miles / 16.1 kilometers Calm Calm - N/A   Clear
2:55 PM 55.4°F / 13.0°C 44.6°F / 7.0°C 67% 30.30 in / 1026.0 hPa 10.0 miles / 16.1 kilometers Calm Calm - N/A   Clear
3:15 PM 55.4°F / 13.0°C 42.8°F / 6.0°C 63% 30.30 in / 1026.0 hPa 10.0 miles / 16.1 kilometers NNW 4.6 mph / 7.4 km/h - N/A   Clear
3:35 PM 53.6°F / 12.0°C 42.8°F / 6.0°C 67% 30.30 in / 1026.0 hPa 10.0 miles / 16.1 kilometers NNW 4.6 mph / 7.4 km/h - N/A   Clear
3:55 PM 53.6°F / 12.0°C 44.6°F / 7.0°C 72% 30.30 in / 1026.0 hPa 10.0 miles / 16.1 kilometers NNW 6.9 mph / 11.1 km/h - N/A   Clear
4:15 PM 50.0°F / 10.0°C 46.4°F / 8.0°C 87% 30.30 in / 1026.0 hPa 10.0 miles / 16.1 kilometers NNW 5.8 mph / 9.3 km/h - N/A   Clear
4:35 PM 48.2°F / 9.0°C 46.4°F / 8.0°C 93% 30.30 in / 1026.0 hPa 10.0 miles / 16.1 kilometers North 4.6 mph / 7.4 km/h - N/A   Clear
4:55 PM 46.4°F / 8.0°C 44.6°F / 7.0°C 93% 30.30 in / 1026.0 hPa 10.0 miles / 16.1 kilometers North 4.6 mph / 7.4 km/h - N/A   Clear
5:15 PM 46.4°F / 8.0°C 44.6°F / 7.0°C 93% 30.30 in / 1026.0 hPa 10.0 miles / 16.1 kilometers NNW 4.6 mph / 7.4 km/h - N/A   Clear
5:35 PM 44.6°F / 7.0°C 44.6°F / 7.0°C 100% 30.30 in / 1026.0 hPa 10.0 miles / 16.1 kilometers Calm Calm - N/A   Clear
5:55 PM 44.6°F / 7.0°C 44.6°F / 7.0°C 100% 30.31 in / 1026.3 hPa 10.0 miles / 16.1 kilometers Calm Calm - N/A   Clear
6:15 PM 44.6°F / 7.0°C 42.8°F / 6.0°C 93% 30.31 in / 1026.3 hPa 10.0 miles / 16.1 kilometers North 3.5 mph / 5.6 km/h - N/A   Clear
6:35 PM 44.6°F / 7.0°C 42.8°F / 6.0°C 93% 30.31 in / 1026.3 hPa 10.0 miles / 16.1 kilometers Calm Calm - N/A   Clear
6:55 PM 42.8°F / 6.0°C 41.0°F / 5.0°C 93% 30.31 in / 1026.3 hPa 10.0 miles / 16.1 kilometers NNE 3.5 mph / 5.6 km/h - N/A   Clear
7:15 PM 42.8°F / 6.0°C 42.8°F / 6.0°C 100% 30.31 in / 1026.3 hPa 10.0 miles / 16.1 kilometers Calm Calm - N/A   Clear
7:35 PM 42.8°F / 6.0°C 42.8°F / 6.0°C 100% 30.30 in / 1026.0 hPa 10.0 miles / 16.1 kilometers NNE 3.5 mph / 5.6 km/h - N/A   Clear
7:55 PM 41.0°F / 5.0°C 41.0°F / 5.0°C 100% 30.30 in / 1026.0 hPa 0.8 miles / 1.2 kilometers NNE 3.5 mph / 5.6 km/h - N/A   Mostly Cloudy
8:15 PM 41.0°F / 5.0°C 41.0°F / 5.0°C 100% 30.30 in / 1026.0 hPa 6.0 miles / 9.7 kilometers Calm Calm - N/A   Mostly Cloudy
8:35 PM 44.6°F / 7.0°C 42.8°F / 6.0°C 93% 30.30 in / 1026.0 hPa 8.0 miles / 12.9 kilometers NNE 4.6 mph / 7.4 km/h - N/A   Overcast
8:55 PM 44.6°F / 7.0°C 44.6°F / 7.0°C 100% 30.30 in / 1026.0 hPa 6.0 miles / 9.7 kilometers NNE 3.5 mph / 5.6 km/h - N/A   Overcast
9:15 PM 44.6°F / 7.0°C 44.6°F / 7.0°C 100% 30.30 in / 1026.0 hPa 4.0 miles / 6.4 kilometers NNE 3.5 mph / 5.6 km/h - N/A   Overcast
9:35 PM 44.6°F / 7.0°C 44.6°F / 7.0°C 100% 30.30 in / 1026.0 hPa 3.0 miles / 4.8 kilometers NNE 4.6 mph / 7.4 km/h - N/A   Overcast
10:15 PM 41.0°F / 5.0°C 41.0°F / 5.0°C 100% 30.30 in / 1026.0 hPa 0.5 miles / 0.8 kilometers ENE 4.6 mph / 7.4 km/h - N/A Fog Fog
10:35 PM 41.0°F / 5.0°C 41.0°F / 5.0°C 100% 30.29 in / 1025.6 hPa 0.5 miles / 0.8 kilometers ENE 3.5 mph / 5.6 km/h - N/A Fog Fog
10:55 PM 41.0°F / 5.0°C 41.0°F / 5.0°C 100% 30.28 in / 1025.3 hPa 0.2 miles / 0.4 kilometers ENE 3.5 mph / 5.6 km/h - N/A Fog Fog
11:15 PM 39.2°F / 4.0°C 39.2°F / 4.0°C 100% 30.28 in / 1025.3 hPa 0.2 miles / 0.4 kilometers Calm Calm - N/A Fog Fog
11:35 PM 39.2°F / 4.0°C 39.2°F / 4.0°C 100% 30.28 in / 1025.3 hPa 0.2 miles / 0.4 kilometers Calm Calm - N/A Fog Fog
11:55 PM 39.2°F / 4.0°C 39.2°F / 4.0°C 100% 30.28 in / 1025.3 hPa 0.2 miles / 0.4 kilometers SW 3.5 mph / 5.6 km/h - N/A Fog Fog
Moon Phase
Nov. 14 Nov. 20 Nov. 28 Dec. 06 Dec. 13
Sunrise:07:13 AM (PST) Moon Rise:08:13 AM (PST)11/14
Sunset:04:38 PM (PST) Moon Set:05:28 PM (PST)11/14

Copyright © 2014 The Weather Underground, Inc.